Weather History for Maniitsoq, Greenland

Change the Weather History Date:

Thursday, March 21, 2013

  Actual Average Record
Temperature  
Mean Temperature 36 °F -  
Max Temperature 41 °F - - ()
Min Temperature 30 °F - - ()
Degree Days  
Heating Degree Days 30    
Moisture  
Dew Point 13 °F    
Average Humidity 44    
Maximum Humidity 75    
Minimum Humidity 24    
Precipitation  
Precipitation 0.00 in - - ()
Sea Level Pressure  
Sea Level Pressure 30.53 in    
Wind  
Wind Speed 12 mph ()    
Max Wind Speed 21 mph    
Max Gust Speed -    
Visibility 6.2 miles    
Events      
T = Trace of Precipitation, MM = Missing Value Source: Averaged Metar Reports

Daily Weather History Graph

Daily Weather History Graph

Search for Another Location

Airport:

Trip Planner

Search our weather history database for the weather conditions in past years. The results will help you decide how hot, cold, wet, or windy it might be!

Date:

Astronomy

Mar. 21, 2013 Rise Set
Actual Time 6:27 AM WGT 6:51 PM WGT
Civil Twilight 5:37 AM WGT 7:42 PM WGT
Nautical Twilight 4:35 AM WGT 8:44 PM WGT
Astronomical Twilight 3:22 AM WGT 9:58 PM WGT
Moon 11:16 AM WGT (3/21) 4:48 AM WGT (3/21)
Length of Visible Light 14h 04m
Length of Day
12h 24m
Waxing Gibbous, 68% of the Moon is Illuminated
Mar 21
Waxing Gibbous
Mar 27
Full
Apr 3
Last Quarter
Apr 10
New
Apr 18
First Quarter

Hourly Weather History & Observations

Time (WGT) Temp. Windchill Dew Point Humidity Pressure Visibility Wind Dir Wind Speed Gust Speed Precip Events Conditions
12:20 AM 30.2 °F 17.4 °F 6.8 °F 37% 30.48 in 6.2 mi East 20.7 mph - N/A   Unknown
12:50 AM 30.2 °F 17.4 °F 8.6 °F 40% 30.51 in 6.2 mi East 20.7 mph - N/A   Mostly Cloudy
1:20 AM 32.0 °F 20.8 °F 8.6 °F 38% 30.51 in 6.2 mi East 17.3 mph - N/A   Mostly Cloudy
1:50 AM 30.2 °F 18.1 °F 12.2 °F 47% 30.51 in 6.2 mi East 18.4 mph - N/A   Mostly Cloudy
2:20 AM 32.0 °F 20.1 °F 10.4 °F 41% 30.54 in 6.2 mi East 19.6 mph - N/A   Mostly Cloudy
3:50 AM 30.2 °F 19.3 °F 8.6 °F 40% 30.54 in 6.2 mi ENE 15.0 mph - N/A   Unknown
4:20 AM 30.2 °F 18.5 °F 8.6 °F 40% 30.57 in 6.2 mi ENE 17.3 mph - N/A   Unknown
4:50 AM 30.2 °F 18.9 °F 6.8 °F 37% 30.57 in 6.2 mi NE 16.1 mph - N/A   Unknown
5:20 AM 30.2 °F 19.3 °F 6.8 °F 37% 30.60 in 6.2 mi ENE 15.0 mph - N/A   Unknown
5:50 AM 30.2 °F 19.8 °F 5.0 °F 34% 30.60 in 6.2 mi NE 13.8 mph - N/A   Unknown
6:20 AM 30.2 °F 18.5 °F 6.8 °F 37% 30.60 in 6.2 mi ENE 17.3 mph - N/A   Unknown
6:50 AM 32.0 °F 21.6 °F 6.8 °F 35% 30.60 in 6.2 mi East 15.0 mph - N/A   Unknown
7:20 AM 30.2 °F 19.3 °F 8.6 °F 40% 30.60 in 6.2 mi East 15.0 mph - N/A   Unknown
7:50 AM 30.2 °F 21.9 °F 8.6 °F 40% 30.60 in 6.2 mi East 9.2 mph - N/A   Unknown
8:50 AM 33.8 °F 23.9 °F 10.4 °F 38% 30.60 in 6.2 mi East 15.0 mph - N/A   Partly Cloudy
9:50 AM 35.6 °F 25.2 °F 8.6 °F 33% 30.57 in 6.2 mi East 18.4 mph - N/A   Partly Cloudy
10:50 AM 37.4 °F 27.5 °F 6.8 °F 28% 30.57 in 6.2 mi East 18.4 mph - N/A   Partly Cloudy
11:50 AM 39.2 °F 32.5 °F 6.8 °F 26% 30.57 in 6.2 mi ENE 10.4 mph - N/A   Clear
1:50 PM 41.0 °F 34.3 °F 6.8 °F 24% 30.54 in 6.2 mi ENE 11.5 mph - N/A   Clear
2:50 PM 41.0 °F 35.8 °F 6.8 °F 24% 30.51 in 6.2 mi NNE 8.1 mph - N/A   Clear
3:20 PM 39.2 °F 35.9 °F 8.6 °F 28% 30.51 in 6.2 mi North 4.6 mph - N/A   Unknown
3:50 PM 39.2 °F 35.9 °F 12.2 °F 33% 30.48 in 6.2 mi WSW 4.6 mph - N/A   Unknown
4:20 PM 37.4 °F 34.9 °F 17.6 °F 45% 30.51 in 6.2 mi SSW 3.5 mph - N/A   Unknown
4:50 PM 37.4 °F - 23.0 °F 56% 30.51 in 6.2 mi South 2.3 mph - N/A   Unknown
5:20 PM 35.6 °F 28.0 °F 24.8 °F 65% 30.51 in 6.2 mi SSW 10.4 mph - N/A   Unknown
5:50 PM 35.6 °F 30.7 °F 24.8 °F 65% 30.51 in 6.2 mi WSW 5.8 mph - N/A   Unknown
6:20 PM 33.8 °F - 21.2 °F 60% 30.48 in 6.2 mi WNW 2.3 mph - N/A   Unknown
6:50 PM 32.0 °F 26.4 °F 21.2 °F 64% 30.48 in 6.2 mi NW 5.8 mph - N/A   Unknown
7:20 PM 32.0 °F 26.4 °F 19.4 °F 60% 30.48 in 6.2 mi NNW 5.8 mph - N/A   Unknown
7:50 PM 32.0 °F - 17.6 °F 55% 30.48 in 6.2 mi NNW 1.2 mph - N/A   Unknown
8:20 PM 32.0 °F 25.6 °F 17.6 °F 55% 30.48 in 6.2 mi NNW 6.9 mph - N/A   Unknown
8:50 PM 32.0 °F 28.7 °F 17.6 °F 55% 30.48 in 6.2 mi South 3.5 mph - N/A   Unknown
9:20 PM 30.2 °F 24.3 °F 23.0 °F 75% 30.51 in 6.2 mi SSE 5.8 mph - N/A   Partly Cloudy
10:20 PM 30.2 °F - 19.4 °F 64% 30.51 in 6.2 mi Calm Calm - N/A   Unknown
10:50 PM 30.2 °F - 14.0 °F 51% 30.48 in 6.2 mi NNW 2.3 mph - N/A   Scattered Clouds
11:20 PM 30.2 °F 23.4 °F 12.2 °F 47% 30.45 in 6.2 mi North 6.9 mph - N/A   Partly Cloudy
11:50 PM 30.2 °F 26.7 °F 10.4 °F 44% 30.45 in 6.2 mi West 3.5 mph - N/A   Unknown